Regional Weather Roundup
Issued by NWS

Home | Current Version | Previous Version | Graphics & Text | Print | Product List | Glossary On
Versions: 1 2 3 4 5 6 7 8 9 10 11 12 13 14 15 16 17 18 19 20 21 22 23 24 25 26 27 28
000
ASUS45 KSLC 171910
RWRUT

UTAH REGIONAL WEATHER ROUNDUP
NATIONAL WEATHER SERVICE SALT LAKE CITY UT
1200 PM MST SUN DEC 17 2017

UTZ001>011-023>025-172000-

NORTHERN UTAH

CITY           SKY/WX    TMP DP  RH WIND       PRES   REMARKS
BRIGHAM CITY   PTSUNNY   32  22  66 CALM      30.24R
HILL AFB       MOSUNNY   31  24  77 SW6       30.20S WCI  25
LOGAN          MOSUNNY   33  21  61 NW6       30.23R WCI  28
OGDEN          PTSUNNY   31  25  78 W7        30.21R WCI  24
SALT LAKE CITY MOSUNNY   34  25  69 CALM      30.21F
TOOELE VALLEY  SUNNY     32  27  80 CALM      30.23S
WENDOVER       SUNNY     29  20  69 E6        30.24S WCI  23
HEBER CITY       N/A     34  18  51 S3        30.12F
WEST JORDAN    SUNNY     30  24  78 CALM      30.21F

$$

UTZ011>015-024>027-172000-

CENTRAL/NORTHEAST UTAH

CITY           SKY/WX    TMP DP  RH WIND       PRES   REMARKS
PROVO AIRPORT  PTSUNNY   34  22  61 SW5       30.20F WCI  30
MOAB/CANYONLAN SUNNY     40  13  33 CALM      30.06F
DELTA          CLOUDY    32  25  74 CALM      30.20F
PRICE          SUNNY     40  16  37 W8        30.04F WCI  34
RICHFIELD      CLOUDY    34  21  60 N7        30.16F WCI  28
ROOSEVELT      PTSUNNY   37  18  44 CALM      30.10F
VERNAL         SUNNY     37  17  44 CALM      30.08F

$$

UTZ013>016-019>022-027-172000-

SOUTHERN UTAH

CITY           SKY/WX    TMP DP  RH WIND       PRES   REMARKS
BRYCE CANYON   SUNNY     31  18  58 N8        30.06F WCI  23
CEDAR CITY     CLOUDY    31  22  69 N10       30.13F WCI  22
MILFORD        CLOUDY    32  24  72 N10       30.18F WCI  24
ST GEORGE      CLEAR     47  22  37 S5        30.11F
HANKSVILLE     SUNNY     36  14  41 CALM      30.11F
KANAB          SUNNY     48  16  27 N6        30.07F
BLANDING         N/A     42   6  22 S5        30.10F

$$

REGIONAL REPORTS     COLORADO/ARIZONA

CITY           SKY/WX    TMP DP  RH WIND       PRES   REMARKS
CRAIG, CO      CLOUDY    30  21  69 NW6       30.07F WCI  24
GRAND JUNCTION SUNNY     37  11  34 CALM      30.07F
RIFLE, CO      SUNNY     33   8  35 CALM      30.06F
MONTROSE, CO   SUNNY     36   8  31 W3        30.08F
CORTEZ, CO     CLOUDY    45   6  20 CALM      30.02F
COLORADO CITY    N/A     45  21  39 NW10      30.08F
PAGE, AZ       SUNNY     42  19  39 E3        30.06F
GRAND CANYON   SUNNY     44   8  23 NE13      30.03F
KINGMAN, AZ    SUNNY     49  20  31 NE12      30.02F
FLAGSTAFF, AZ  SUNNY     42  11  28 E12       29.99F

$$

REGIONAL REPORTS    NEVADA/IDAHO/WYOMING

CITY           SKY/WX    TMP DP  RH WIND       PRES   REMARKS
LAS VEGAS, NV  SUNNY     52  17  25 NW16G25   30.09F
ELY, NY        SUNNY     24  14  65 CALM      30.16F
ELKO, NV       SUNNY     28  18  66 S7        30.25R WCI  21
POCATELLO, ID  CLOUDY    25  19  78 SW9       30.25S WCI  15
BURLEY, ID     SUNNY     31  18  58 W5        30.23F WCI  26
FORT BRIDGER,    N/A     29  18  62 W17G23    30.10F WCI  17
EVANSTON, WY   SUNNY     25  18  74 SW12      30.09F WCI  14
ROCK SPRINGS,  SUNNY     25  14  63 W20       30.03F WCI  11

$$




USA.gov is the U.S. government's official web portal to all federal, state and local government web resources and services.